DLH801 GCTS-EDDH

Flight info

Callsign DLH801
Flight time N/A
Altitude 38000
Route GCTS/07 N0470F380 KASA1E KASAS DCT SAMAR DCT NEVTU DCT TIGGI DCT BARDI DCT ZMR N873 DELOG DCT PEXOD DCT YURZI UL14 TEPRA UN873 BAZOS DCT BELDI DCT VEKIN DCT ADUTO N873 VICOT DCT PABCO M105 RIBSO RIBS3S EDDH/33
Aircraft A346/H-VGDW/C

Departure

Time 2026-05-04 16:26
Airport Tenerife Sur Airport (GCTS)

Arrival

Time N/A
Airport Hamburg Helmut Schmidt Airport (EDDH)
Time Latitude Longitude Altitude Speed Heading
2026-05-04 16:05 28.04479 -16.58360 204 ft 0 kts 341°
2026-05-04 16:19 28.04450 -16.58347 218 ft 9 kts 332°
2026-05-04 16:20 28.04420 -16.58270 215 ft 0 kts 251°
2026-05-04 16:22 28.04386 -16.58392 214 ft 24 kts 248°
2026-05-04 16:22 28.04169 -16.58613 205 ft 16 kts 240°
2026-05-04 16:23 28.03973 -16.58806 208 ft 14 kts 120°
2026-05-04 16:24 28.04068 -16.58339 210 ft 89 kts 69°
2026-05-04 16:25 28.04709 -16.56514 418 ft 190 kts 72°
2026-05-04 16:26 28.06818 -16.50683 3797 ft 221 kts 49°
2026-05-04 16:26 28.11200 -16.47538 5354 ft 275 kts 29°
2026-05-04 16:27 28.14562 -16.45272 6951 ft 288 kts 28°
2026-05-04 16:28 28.19871 -16.41559 9409 ft 305 kts 30°
2026-05-04 16:28 28.25485 -16.37532 11230 ft 340 kts 30°
2026-05-04 16:29 28.34331 -16.31158 12792 ft 413 kts 30°
2026-05-04 16:30 28.41851 -16.25732 14857 ft 434 kts 30°
2026-05-04 16:31 28.46975 -16.22035 16294 ft 443 kts 30°
2026-05-04 16:31 28.54929 -16.16291 18416 ft 457 kts 30°
2026-05-04 16:32 28.63086 -16.10399 20230 ft 470 kts 29°
2026-05-04 16:33 28.68670 -16.06359 21383 ft 479 kts 29°
2026-05-04 16:33 28.74341 -16.02240 22543 ft 488 kts 29°
2026-05-04 16:34 28.80110 -15.98037 23675 ft 497 kts 29°
2026-05-04 16:34 28.83050 -15.95893 24153 ft 501 kts 29°
2026-05-04 16:35 28.91935 -15.89422 25614 ft 511 kts 28°
2026-05-04 16:35 29.01049 -15.82785 27005 ft 523 kts 28°
2026-05-04 16:36 29.04115 -15.80541 27445 ft 526 kts 28°
2026-05-04 16:36 29.10302 -15.76006 28358 ft 533 kts 28°
2026-05-04 16:37 29.16537 -15.71433 29718 ft 530 kts 28°
2026-05-04 16:37 29.19613 -15.69178 30367 ft 528 kts 28°
2026-05-04 16:37 29.25829 -15.64613 31403 ft 529 kts 28°
2026-05-04 16:38 29.32013 -15.60064 32279 ft 531 kts 27°
2026-05-04 16:39 29.41405 -15.53151 33670 ft 534 kts 27°
2026-05-04 16:39 29.47645 -15.48542 34491 ft 536 kts 27°
2026-05-04 16:40 29.53893 -15.43932 35429 ft 533 kts 27°
2026-05-04 16:40 29.60145 -15.39308 36279 ft 532 kts 27°
2026-05-04 16:41 29.66367 -15.34702 36853 ft 535 kts 27°
2026-05-04 16:41 29.75800 -15.27699 37625 ft 540 kts 27°
2026-05-04 16:42 29.85315 -15.20612 38077 ft 546 kts 27°
2026-05-04 16:43 29.91743 -15.15802 38095 ft 557 kts 28°
2026-05-04 16:43 30.01537 -15.08462 38095 ft 560 kts 27°
2026-05-04 16:45 30.21127 -14.93758 38091 ft 560 kts 28°
2026-05-04 16:46 30.37514 -14.81394 38097 ft 563 kts 28°
2026-05-04 16:47 30.50595 -14.71479 38099 ft 561 kts 28°
2026-05-04 16:48 30.63652 -14.61575 38105 ft 561 kts 28°
2026-05-04 16:49 30.76720 -14.51637 38106 ft 559 kts 28°
2026-05-04 16:50 30.89817 -14.41823 38100 ft 550 kts 24°